Monument Pass, CO

1:13 AM MDT on September 25, 2017 (GMT -0600)
Monument Pass

Weather History for KMNH - April, 2013

Change the Weather History Date:

Saturday, April 13, 2013

  Actual Average Record
Temperature  
Mean Temperature 44 °F -  
Max Temperature 62 °F - 78 °F (2006)
Min Temperature 26 °F - 14 °F (2014)
Degree Days  
Heating Degree Days 21    
Month to date heating degree days  
Cooling Degree Days 0    
Month to date cooling degree days  
Moisture  
Dew Point 22 °F    
Average Humidity 52    
Maximum Humidity 100    
Minimum Humidity 15    
Precipitation  
Precipitation 0.00 in - 0.07 in (2014)
Sea Level Pressure  
Sea Level Pressure 29.68 in    
Wind  
Wind Speed 16 mph (SW)    
Max Wind Speed 30 mph    
Max Gust Speed 37 mph    
Visibility 9 miles    
Events      
T = Trace of Precipitation, MM = Missing Value Source: NWS Daily Summary

Daily Weather History Graph

Daily Weather History Graph

Search for Another Location

Airport or City:

Trip Planner

Search our weather history database for the weather conditions in past years. The results will help you decide how hot, cold, wet, or windy it might be!

Date:

Astronomy

Apr. 13, 2013 Rise Set
Actual Time 6:24 AM MDT 7:34 PM MDT
Civil Twilight 5:56 AM MDT 8:02 PM MDT
Nautical Twilight 5:23 AM MDT 8:35 PM MDT
Astronomical Twilight 4:49 AM MDT 9:09 PM MDT
Moon 8:18 AM MDT (4/13) 10:59 PM MDT (4/13)
Length of Visible Light 14h 05m
Length of Day
13h 10m
Waxing Crescent, 11% of the Moon is Illuminated
Apr 13
Waxing Crescent
Apr 18
First Quarter
Apr 25
Full
May 2
Last Quarter
May 9
New

Hourly Weather History & Observations

Time (MDT) Temp. Windchill Dew Point Humidity Pressure Visibility Wind Dir Wind Speed Gust Speed Precip Events Conditions
12:14 AM 30.2 °F 20.8 °F 28.4 °F 93% 29.97 in 0.8 mi SSE 11.5 mph 18.4 mph N/A   Overcast
12:34 AM 30.2 °F 20.8 °F 30.2 °F 100% 29.97 in 10.0 mi South 11.5 mph - N/A   Mostly Cloudy
12:54 AM 32.0 °F 19.2 °F 32.0 °F 100% 29.95 in 7.0 mi South 23.0 mph - N/A   Scattered Clouds
1:14 AM 32.0 °F 19.2 °F 30.2 °F 93% 29.95 in 10.0 mi South 23.0 mph 26.5 mph N/A   Clear
1:34 AM 32.0 °F 19.5 °F 32.0 °F 100% 29.95 in 7.0 mi South 21.9 mph 28.8 mph N/A   Mostly Cloudy
1:54 AM 32.0 °F 19.2 °F 32.0 °F 100% 29.93 in 10.0 mi South 23.0 mph 29.9 mph N/A   Overcast
2:14 AM 32.0 °F 18.9 °F 32.0 °F 100% 29.92 in 10.0 mi South 24.2 mph 33.4 mph N/A   Overcast
2:34 AM 32.0 °F 19.5 °F 32.0 °F 100% 29.91 in 10.0 mi South 21.9 mph 28.8 mph N/A   Overcast
2:54 AM 32.0 °F 20.5 °F 30.2 °F 93% 29.89 in 10.0 mi South 18.4 mph - N/A   Scattered Clouds
3:14 AM 32.0 °F 19.8 °F 30.2 °F 93% 29.88 in 10.0 mi South 20.7 mph - N/A   Clear
3:34 AM 32.0 °F 20.1 °F 30.2 °F 93% 29.87 in 10.0 mi South 19.6 mph 26.5 mph N/A   Clear
3:53 AM 32.0 °F 22.5 °F 30.2 °F 93% 29.86 in 10.0 mi SSW 12.7 mph - N/A   Clear
4:13 AM 30.2 °F 19.8 °F 28.4 °F 93% 29.86 in 10.0 mi SSW 13.8 mph 19.6 mph N/A   Clear
4:33 AM 30.2 °F 21.3 °F 28.4 °F 93% 29.86 in 10.0 mi SW 10.4 mph 19.6 mph N/A   Clear
4:54 AM 30.2 °F 19.3 °F 30.2 °F 100% 29.85 in 1.8 mi SSW 15.0 mph 19.6 mph N/A   Overcast
5:13 AM 30.2 °F 18.5 °F 28.4 °F 93% 29.85 in 1.5 mi SW 17.3 mph - N/A   Overcast
5:33 AM 28.4 °F 19.1 °F 28.4 °F 100% 29.84 in 1.8 mi SSW 10.4 mph - N/A   Overcast
5:54 AM 28.4 °F 18.5 °F 28.4 °F 100% 29.83 in 3.0 mi SSW 11.5 mph - N/A   Mostly Cloudy
6:14 AM 26.6 °F 16.2 °F 26.6 °F 100% 29.82 in 10.0 mi South 11.5 mph - N/A   Scattered Clouds
6:34 AM 28.4 °F 18.5 °F 26.6 °F 93% 29.82 in 10.0 mi South 11.5 mph - N/A   Clear
6:54 AM 28.4 °F 19.7 °F 26.6 °F 93% 29.81 in 10.0 mi South 9.2 mph - N/A   Clear
7:14 AM 30.2 °F 22.6 °F 26.6 °F 86% 29.81 in 10.0 mi South 8.1 mph - N/A   Clear
7:34 AM 30.2 °F 22.6 °F 28.4 °F 93% 29.81 in 10.0 mi South 8.1 mph - N/A   Clear
7:54 AM 32.0 °F 23.6 °F 28.4 °F 87% 29.80 in 10.0 mi South 10.4 mph - N/A   Clear
8:14 AM 33.8 °F 27.0 °F 30.2 °F 87% 29.79 in 10.0 mi SSW 8.1 mph - N/A   Clear
8:34 AM 35.6 °F 29.2 °F 30.2 °F 81% 29.77 in 10.0 mi SSW 8.1 mph - N/A   Clear
8:54 AM 37.4 °F 29.8 °F 28.4 °F 70% 29.76 in 10.0 mi SW 11.5 mph - N/A   Clear
9:14 AM 41.0 °F 34.3 °F 26.6 °F 57% 29.75 in 10.0 mi SSW 11.5 mph - N/A   Clear
9:33 AM 41.0 °F 33.1 °F 21.2 °F 45% 29.75 in 10.0 mi SW 15.0 mph - N/A   Clear
9:53 AM 42.8 °F 36.6 °F 23.0 °F 46% 29.73 in 10.0 mi SSW 11.5 mph - N/A   Clear
10:14 AM 41.0 °F 34.3 °F 28.4 °F 61% 29.73 in 10.0 mi SSW 11.5 mph - N/A   Clear
10:34 AM 46.4 °F 39.0 °F 19.4 °F 34% 29.71 in 10.0 mi SW 19.6 mph 25.3 mph N/A   Clear
10:54 AM 50.0 °F - 15.8 °F 26% 29.71 in 10.0 mi SW 23.0 mph 26.5 mph N/A   Clear
11:14 AM 53.6 °F - 14.0 °F 21% 29.71 in 10.0 mi WSW 13.8 mph 23.0 mph N/A   Clear
11:34 AM 53.6 °F - 14.0 °F 21% 29.69 in 10.0 mi SW 11.5 mph - N/A   Clear
11:54 AM 55.4 °F - 14.0 °F 20% 29.67 in 10.0 mi WSW 11.5 mph 20.7 mph N/A   Clear
12:14 PM 55.4 °F - 19.4 °F 25% 29.66 in 10.0 mi SSW 12.7 mph 19.6 mph N/A   Clear
12:34 PM 57.2 °F - 19.4 °F 23% 29.65 in 10.0 mi SW 15.0 mph 24.2 mph N/A   Clear
12:54 PM 59.0 °F - 19.4 °F 22% 29.63 in 10.0 mi SSW 16.1 mph 27.6 mph N/A   Clear
1:14 PM 57.2 °F - 23.0 °F 27% 29.62 in 10.0 mi South 24.2 mph 28.8 mph N/A   Clear
1:34 PM 57.2 °F - 17.6 °F 21% 29.61 in 10.0 mi SSW 13.8 mph 26.5 mph N/A   Clear
1:54 PM 59.0 °F - 19.4 °F 22% 29.60 in 10.0 mi SSW 13.8 mph 25.3 mph N/A   Clear
2:14 PM 60.8 °F - 17.6 °F 19% 29.58 in 10.0 mi SW 19.6 mph 26.5 mph N/A   Clear
2:34 PM 62.6 °F - 14.0 °F 15% 29.57 in 10.0 mi WSW 20.7 mph 31.1 mph N/A   Clear
2:54 PM 62.6 °F - 14.0 °F 15% 29.56 in 10.0 mi WSW 21.9 mph 33.4 mph N/A   Clear
3:14 PM 59.0 °F - 14.0 °F 17% 29.55 in 10.0 mi WSW 25.3 mph 34.5 mph N/A   Clear
3:34 PM 59.0 °F - 15.8 °F 19% 29.55 in 10.0 mi WSW 23.0 mph 29.9 mph N/A   Clear
3:54 PM 59.0 °F - 15.8 °F 19% 29.55 in 5.0 mi WSW 21.9 mph 28.8 mph N/A   Haze
4:14 PM 57.2 °F - 14.0 °F 18% 29.54 in 10.0 mi West 18.4 mph 27.6 mph N/A   Clear
4:34 PM 59.0 °F - 17.6 °F 20% 29.53 in 10.0 mi West 10.4 mph - N/A   Clear
4:54 PM 60.8 °F - 15.8 °F 17% 29.52 in 10.0 mi WSW 23.0 mph 31.1 mph N/A   Clear
5:14 PM 59.0 °F - 15.8 °F 19% 29.51 in 10.0 mi WSW 15.0 mph 20.7 mph N/A   Clear
5:33 PM 59.0 °F - 17.6 °F 20% 29.51 in 10.0 mi West 24.2 mph 29.9 mph N/A   Clear
5:54 PM 57.2 °F - 14.0 °F 18% 29.51 in 10.0 mi WSW 19.6 mph 31.1 mph N/A   Clear
6:14 PM 59.0 °F - 14.0 °F 17% 29.51 in 10.0 mi WSW 23.0 mph 31.1 mph N/A   Clear
6:34 PM 57.2 °F - 14.0 °F 18% 29.51 in 10.0 mi WSW 23.0 mph 31.1 mph N/A   Clear
6:54 PM 55.4 °F - 15.8 °F 21% 29.51 in 10.0 mi WSW 26.5 mph 35.7 mph N/A   Clear
7:14 PM 53.6 °F - 17.6 °F 24% 29.51 in 10.0 mi WSW 29.9 mph 36.8 mph N/A   Clear
7:33 PM 51.8 °F - 17.6 °F 26% 29.51 in 10.0 mi WSW 19.6 mph - N/A   Clear
7:54 PM 51.8 °F - 17.6 °F 26% 29.52 in 10.0 mi West 17.3 mph 25.3 mph N/A   Clear
8:14 PM 50.0 °F - 19.4 °F 30% 29.52 in 10.0 mi West 11.5 mph - N/A   Clear
8:34 PM 50.0 °F - 19.4 °F 30% 29.51 in 10.0 mi West 11.5 mph - N/A   Clear
8:53 PM 50.0 °F - 19.4 °F 30% 29.52 in 10.0 mi West 11.5 mph 21.9 mph N/A   Clear
9:14 PM 46.4 °F 43.5 °F 19.4 °F 34% 29.52 in 10.0 mi West 5.8 mph - N/A   Clear
9:33 PM 46.4 °F 41.9 °F 19.4 °F 34% 29.51 in 10.0 mi West 9.2 mph - N/A   Clear
9:54 PM 46.4 °F 42.9 °F 21.2 °F 37% 29.52 in 10.0 mi WNW 6.9 mph - N/A   Clear
10:14 PM 46.4 °F - 21.2 °F 37% 29.50 in 10.0 mi Calm Calm - N/A   Clear
10:34 PM 46.4 °F 42.4 °F 21.2 °F 37% 29.50 in 10.0 mi West 8.1 mph - N/A   Clear
10:54 PM 46.4 °F 41.5 °F 21.2 °F 37% 29.49 in 10.0 mi WSW 10.4 mph - N/A   Clear
11:14 PM 46.4 °F 41.1 °F 21.2 °F 37% 29.47 in 10.0 mi SW 11.5 mph 18.4 mph N/A   Clear
11:34 PM 46.4 °F 41.1 °F 21.2 °F 37% 29.49 in 10.0 mi WSW 11.5 mph - N/A   Clear
11:54 PM 44.6 °F 38.1 °F 23.0 °F 43% 29.48 in 10.0 mi West 13.8 mph 18.4 mph N/A   Clear